Meteo Giornale » Osservazioni meteo Croazia » Rijeka-Omisalj

ore: 12:30 - Osservazioni Meteo Rijeka-Omisalj
Lat. 45° 13' N Lon. 14° 35' E Alt. 85 metri s.l.m.

molto_nuvoloso Europe/Zagreb

10 °C

Molto Nuvoloso

Temp. 24 Ore

3 °C

10 °C

Nord

0 Km/h

Dew point 3 °C

Umidità 61 %

Visibilità  10 Km

Il sole sorge alle ore 07:22

Il sole tramonta alle ore 16:21

Data e Ora Cielo e Fenomeni T °C DP °C Um. % Pres. hPa Vis. km Vento km/h
Oggi h: 12:30 molto_nuvoloso Molto Nuvoloso 10 3 61 1004 10 N 0
Oggi h: 12:00 molto_nuvoloso Molto Nuvoloso 9 2 61 1004 10 N 5.5
Oggi h: 11:30 molto_nuvoloso Molto Nuvoloso 9 2 61 1004 10 N 5.5
Oggi h: 11:00 molto_nuvoloso Molto Nuvoloso 9 2 61 1004 10 N 7.4
Oggi h: 10:30 molto_nuvoloso Molto Nuvoloso 8 3 70 1005 10 N 7.4
Oggi h: 10:00 molto_nuvoloso Molto Nuvoloso 8 4 75 1004 10 NE 7.4
Oggi h: 09:30 nuvoloso Nuvoloso 8 5 81 1004 10 N 3.7
Oggi h: 09:00 molto_nuvoloso Molto Nuvoloso 7 5 87 1004 10 N 0
Oggi h: 08:30 molto_nuvoloso Molto Nuvoloso 7 5 87 1004 10 N 0
Oggi h: 08:00 molto_nuvoloso Molto Nuvoloso 6 4 86 1004 10 NE 11.1
Oggi h: 07:30 molto_nuvoloso Molto Nuvoloso 6 5 93 1003 10 N 5.5
Oggi h: 07:00 poco_nuvoloso Poco Nuvoloso 5 4 93 1004 10 N 5.5
Oggi h: 06:30 poco_nuvoloso Poco Nuvoloso 5 4 93 1003 10 N 3.7
Oggi h: 06:00 poco_nuvoloso Poco Nuvoloso 6 4 86 1003 10 E 11.1
Oggi h: 05:30 poco_nuvoloso Poco Nuvoloso 4 4 100 1004 10 N 1.8
Oggi h: 05:00 poco_nuvoloso Poco Nuvoloso 5 3 86 1004 10 N 0
Oggi h: 04:30 poco_nuvoloso Poco Nuvoloso 4 3 93 1004 10 E 7.4
Oggi h: 04:00 poco_nuvoloso Poco Nuvoloso 3 2 93 1004 10 N 5.5
Oggi h: 03:30 poco_nuvoloso Poco Nuvoloso 4 3 93 1004 10 N 3.7
Oggi h: 03:00 poco_nuvoloso Poco Nuvoloso 5 3 86 1004 10 N 0
Oggi h: 02:30 poco_nuvoloso Poco Nuvoloso 5 3 86 1004 10 N 0
Oggi h: 02:00 poco_nuvoloso Poco Nuvoloso 6 4 86 1005 10 N 0
Oggi h: 01:30 poco_nuvoloso Poco Nuvoloso 4 3 93 1005 10 N 0
Oggi h: 01:00 poco_nuvoloso Poco Nuvoloso 4 3 93 1004 10 N 0
Oggi h: 00:30 poco_nuvoloso Poco Nuvoloso 5 3 86 1005 10 N 5.5
Ieri h: 23:30 poco_nuvoloso Poco Nuvoloso 4 2 86 1004 10 N 3.7
Ieri h: 23:00 poco_nuvoloso Poco Nuvoloso 4 2 86 1005 10 E 7.4
Ieri h: 22:30 nuvoloso Nuvoloso 4 2 86 1005 10 N 5.5
Ieri h: 22:00 molto_nuvoloso Molto Nuvoloso 5 2 80 1005 10 N 3.7
Ieri h: 21:30 molto_nuvoloso Molto Nuvoloso 6 2 75 1005 10 E/NE 9.3
Ieri h: 21:00 molto_nuvoloso Molto Nuvoloso 5 1 75 1005 10 N 1.8
Ieri h: 20:30 molto_nuvoloso Molto Nuvoloso 6 1 70 1005 10 N 0
Ieri h: 19:30 molto_nuvoloso Molto Nuvoloso 6 1 70 1005 10 E/NE 11.1
Ieri h: 19:00 molto_nuvoloso Molto Nuvoloso 6 1 70 1006 10 E/NE 11.1
Ieri h: 18:30 molto_nuvoloso Molto Nuvoloso 6 1 70 1006 10 E/NE 9.3
Ieri h: 18:00 molto_nuvoloso Molto Nuvoloso 6 1 70 1006 10 E/NE 9.3
Ieri h: 17:30 molto_nuvoloso Molto Nuvoloso 6 0 65 1006 10 E/NE 13
Ieri h: 17:00 molto_nuvoloso Molto Nuvoloso 6 0 65 1006 10 E/NE 13
Ieri h: 16:00 molto_nuvoloso Molto Nuvoloso 7 0 60 1005 10 NE 9.3
Ieri h: 15:30 molto_nuvoloso Molto Nuvoloso 7 1 65 1006 10 NE 9.3
Ieri h: 15:00 molto_nuvoloso Molto Nuvoloso 7 1 65 1006 10 E/NE 14.8
Ieri h: 14:30 molto_nuvoloso Molto Nuvoloso 7 1 65 1006 10 E/NE 14.8
Ieri h: 14:00 molto_nuvoloso Molto Nuvoloso 7 1 65 1006 10 NE 9.3
Ieri h: 13:30 molto_nuvoloso Molto Nuvoloso 7 1 65 1006 10 NE 9.3
Ieri h: 13:00 molto_nuvoloso Molto Nuvoloso 7 1 65 1007 10 E/NE 11.1